Flag for Russia Weather past 2 weeks in Nizhny Novgorod, Russia

Now
43 °F

Partly sunny.


Feels Like: 37 °F
Forecast: 41 / 50 °F
Wind: 10 mph from Northwest

Location: Nizhny Novgorod/Strigino

Current Time: Apr 26, 2015 at 9:54:26 AM

Latest Report: Apr 26, 2015 at 9:30 AM


Visibility: 6 mi

Pressure: 29.89 "Hg

Humidity: 49%

Dew point: 25 °F

Location of Nizhny NovgorodLocation

Historic Weather in Nizhny Novgorod — Graph

°F

Nizhny Novgorod temperature yesterday

Maximum temperature yesterday: 48 °F (at 11:30 AM)
Minimum temperature yesterday: 28 °F (at 4:30 AM)
Average temperature yesterday: 40 °F

Past Weeks' High & Low Weather Summary

 TemperatureHumidityPressure
High59 °F (Apr 14, 12:30 PM)100% (Apr 17, 8:30 AM)30.18 "Hg (Apr 17, 8:30 AM)
Low27 °F (Apr 19, 3:00 AM)23% (Apr 12, 4:00 PM)29.12 "Hg (Apr 24, 2:00 AM)
Average40 °F69%29.60 "Hg
* Reported Apr 11 8:00 AM — Apr 26 8:30 AM, Nizhny Novgorod, Weather by CustomWeather, © 2015

Note: Actual official high and low records may vary slightly from our data, if they occured in-between our weather recording intervals... More about our weather records

Advertising

Nizhny Novgorod weather history for previous 24 hours

 ConditionsComfort  
Time TempWeatherWind HumidityBarometerVisibility
8:30 AM
Sun, Apr 26
41 °FScattered clouds.8 mph61%29.89 "Hg6 mi
8:00 AM39 °FPartly sunny.8 mph70%29.89 "Hg6 mi
7:30 AM37 °FPartly sunny.10 mph75%29.89 "Hg6 mi
7:00 AM36 °FPartly sunny.8 mph81%29.89 "Hg6 mi
6:30 AM34 °FPartly sunny.8 mph87%29.89 "Hg6 mi
6:00 AM34 °FScattered clouds.6 mph87%29.86 "Hg6 mi
5:30 AM34 °FPassing clouds.6 mph87%29.86 "Hg6 mi
5:00 AM32 °FPassing clouds.6 mph93%29.86 "Hg6 mi
4:30 AM34 °FClear.6 mph87%29.86 "Hg6 mi
4:00 AM34 °FClear.6 mph81%29.83 "Hg6 mi
3:30 AM34 °FPassing clouds.6 mph81%29.83 "Hg6 mi
3:00 AM34 °FPassing clouds.6 mph81%29.83 "Hg6 mi
2:30 AM34 °FPassing clouds.3 mph75%29.83 "Hg6 mi
2:00 AM34 °FPassing clouds.6 mph75%29.83 "Hg6 mi
1:30 AM36 °FPartly cloudy.3 mph70%29.83 "Hg6 mi
1:00 AM36 °FClear.6 mph65%29.83 "Hg10 mi
12:00 AM36 °FClear.3 mph65%29.83 "Hg6 mi
11:30 PM
Sat, Apr 25
37 °FClear.3 mph60%29.80 "Hg6 mi
11:00 PM37 °FClear.6 mph60%29.80 "Hg6 mi
10:30 PM37 °FClear.6 mph65%29.80 "Hg10 mi
10:00 PM39 °FClear.3 mph61%29.80 "Hg10 mi
9:30 PM39 °FPassing clouds.3 mph70%29.77 "HgN/A
9:00 PM39 °FPassing clouds.3 mph70%29.77 "HgN/A
8:30 PM41 °FScattered clouds.3 mph66%29.77 "HgN/A
8:00 PM39 °FScattered clouds.1 mph75%29.74 "HgN/A
7:30 PM39 °FScattered clouds.1 mph70%29.74 "HgN/A
7:00 PM41 °FScattered clouds.3 mph70%29.71 "HgN/A
6:30 PM41 °FPartly sunny.8 mph70%29.71 "HgN/A
6:00 PM43 °FPartly sunny.3 mph71%29.68 "HgN/A
5:30 PM41 °FBroken clouds.6 mph76%29.68 "HgN/A
5:00 PM41 °FPartly sunny.3 mph81%29.65 "HgN/A
4:30 PM41 °FPartly sunny.6 mph76%29.65 "HgN/A
4:00 PM39 °FSprinkles. Mostly cloudy.10 mph87%29.65 "Hg6 mi
3:30 PM41 °FMostly cloudy.13 mph87%29.62 "HgN/A
3:00 PM43 °FSprinkles. Mostly cloudy.10 mph76%29.62 "Hg6 mi
2:30 PM46 °FBroken clouds.3 mph62%29.59 "HgN/A
2:00 PM45 °FSprinkles. Broken clouds.3 mph71%29.59 "HgN/A
1:30 PM45 °FBroken clouds.10 mph61%29.59 "HgN/A
1:00 PM46 °FBroken clouds.6 mph57%29.59 "HgN/A
12:30 PM48 °FBroken clouds.6 mph54%29.59 "HgN/A
12:00 PM48 °FBroken clouds.6 mph54%29.59 "HgN/A
11:30 AM48 °FBroken clouds.6 mph54%29.59 "HgN/A
11:00 AM46 °FPartly sunny.8 mph62%29.59 "HgN/A
10:30 AM46 °FPartly sunny.6 mph57%29.59 "HgN/A
10:00 AM46 °FBroken clouds.6 mph57%29.59 "HgN/A
9:30 AM45 °FBroken clouds.6 mph66%29.59 "HgN/A
9:00 AM45 °FBroken clouds.3 mph66%29.59 "Hg6 mi
Weather by CustomWeather, © 2015

See weather overviewHow to use our weather pages